Regional Weather Roundup
Issued by NWS

Home | Current Version | Previous Version | Text Only | Print | Product List | Glossary Off
Versions: 1 2 3 4 5 6 7 8 9 10 11 12 13 14 15 16 17 18 19 20 21 22 23 24 25 26 27 28

000
ASUS45 KPSR 151110
RWRAZ

ARIZONA HOURLY REGIONAL WEATHER ROUNDUP
NATIONAL WEATHER SERVICE PHOENIX AZ
400 AM MST SUN JAN 15 2017

NOTE: FAIR INDICATES FEW OR NO CLOUDS BELOW 12,000 FEET WITH NO
SIGNIFICANT WEATHER AND/OR OBSTRUCTIONS TO VISIBILITY.

AZZ001>003-036-151200-
NORTHWEST ARIZONA

CITY           SKY/WX    TMP DP  RH WIND       PRES   REMARKS
BULLHEAD CITY  CLEAR     54  37  54 N20       29.96R
KINGMAN        PTCLDY    40  38  93 E9        29.97F WCI  34
$$

AZZ004>008-015-016-018-151200-
NORTH CENTRAL ARIZONA

CITY           SKY/WX    TMP DP  RH WIND       PRES   REMARKS
GRAND CANYON   CLOUDY    34  34 100 NW3       29.99S
WILLIAMS       CLOUDY    32  32 100 S3        29.97S
PRESCOTT       PTCLDY    33  33 100 S5        29.96F FOG     WCI  29
FLAGSTAFF      FOG       31  31 100 N5        29.97S VSB 3/4 WCI  26
PAYSON         CLOUDY    39  37  93 NW5       29.96F
PAGE           CLOUDY    42  36  79 CALM      29.99F
$$

AZZ009>014-017-151200-
NORTHEAST ARIZONA

CITY           SKY/WX    TMP DP  RH WIND       PRES   REMARKS
WINSLOW        CLOUDY    39  38  96 W10       29.97F WCI  32
SAINT JOHNS    FOG       39  39 100 CALM      29.93F VSB 3/4
SHOW LOW       MOCLDY    32  32 100 NE3       29.96F
$$

AZZ023-151200-
GREATER PHOENIX AREA

CITY           SKY/WX    TMP DP  RH WIND       PRES   REMARKS
PHOENIX        MOCLDY    54  48  80 NW6       29.91R
BUCKEYE        CLEAR     46  46 100 N5        29.93S
LUKE AFB       PTCLDY    50  50 100 NW3       29.90S
DEER VALLEY    PTCLDY    49  49 100 CALM      29.91S FOG
SCOTTSDALE     PTCLDY    51  50  96 CALM      29.93R
MESA-GATEWAY   PTCLDY    52  50  93 S7        29.93R
$$

AZZ027-028-151200-
SOUTHWEST MARICOPA COUNTY AND PINAL COUNTY

CITY           SKY/WX    TMP DP  RH WIND       PRES   REMARKS
CASA GRANDE    CLOUDY    52  51  97 W5        29.93R
$$

AZZ503-504-507>509-151200-
SOUTHEAST ARIZONA

CITY           SKY/WX    TMP DP  RH WIND       PRES   REMARKS
TUCSON         RAIN      50  47  89 W3        29.95S FOG
DAVIS-MONTHAN  DRIZZLE   49  49 100 SW6       29.93F
NOGALES        CLOUDY    43  40  89 SE5       29.96S
SIERRA VISTA   LGT RAIN  41  39  93 W8        29.94R
DOUGLAS        LGT RAIN  41  39  93 SW13      29.95R
SAFFORD        MOCLDY    47  46  97 NW7       29.88R
$$

AZZ020-021-025-026-031-151200-
SOUTHWEST ARIZONA

CITY           SKY/WX    TMP DP  RH WIND       PRES   REMARKS
YUMA           CLOUDY    54  46  74 W5        29.96S
$$

CAZ031-033-041-043-047-048-061-151200-
SOUTHERN CALIFORNIA

CITY           SKY/WX    TMP DP  RH WIND       PRES   REMARKS
DOWNTOWN L.A.  CLEAR     55  50  83 CALM      30.01R
L.A. AIRPORT   CLOUDY    54  53  97 E7        30.01R
SAN DIEGO      MOCLDY    56  47  71 E8        30.04S
BURBANK        CLEAR     48  41  76 CALM      30.01R
ONTARIO        CLEAR     49  41  74 CALM      30.00S
RIVERSIDE      CLEAR     45  42  89 S3        30.02R
PALM SPRINGS   CLEAR     54  44  69 W5        29.98S
EL CENTRO NAS    N/A     52  46  80 W5        29.98R
IMPERIAL       MOCLDY    53  47  79 W6        29.96R
BLYTHE         CLOUDY    52  46  80 SW3       29.96R
NEEDLES        CLEAR     54  39  57 NW7       29.97R
$$

NVZ020-UTZ003-151200-
SOUTHERN NEVADA-UTAH

CITY           SKY/WX    TMP DP  RH WIND       PRES   REMARKS
LAS VEGAS      MOCLDY    50  31  48 NE10      29.99F
SALT LAKE CITY CLOUDY    29  25  85 N7        30.17F WCI  22
$$

NMZ009-TXZ055-151200-
NEW MEXICO-WEST TEXAS

CITY           SKY/WX    TMP DP  RH WIND       PRES   REMARKS
ALBUQUERQUE    CLOUDY    41  41 100 N7        29.99F
EL PASO        LGT RAIN  49  45  86 NE8       29.89R
$$


........................KEY........................
SKY/WX - SKY CONDITION/WEATHER
TMP    - TEMPERATURE IN FAHRENHEIT
DP     - DEW POINT IN FAHRENHEIT
RH     - RELATIVE HUMIDITY IN PERCENT
WIND   - DIRECTION AND SPEED IN MILES PER HOUR (MPH)
VRB    - VARIABLE WIND DIRECTION
PRES   - MEAN SEA LEVEL PRESSURE IN INCHES OF MERCURY
         F - FALLING PRESSURE   R - RISING PRESSURE
         S - STEADY PRESSURE
VSB    - VISIBILITY IN MILES
HX     - HEAT INDEX IN FAHRENHEIT
WCI    - WIND CHILL INDEX IN FAHRENHEIT
TC     - TEMPERATURE IN CELSIUS WHICH IS ALSO KNOWN AS
         TEMPERATURE IN CENTIGRADE
AFB    - AIR FORCE BASE
         LUKE AFB IS LUKE AIR FORCE BASE
         DAVIS-MONTHAN IS DAVIS-MONTHAN AIR FORCE BASE
NAS    - NAVAL AIR STATION
         EL CENTRO NAS IS EL CENTRO NAVAL AIR STATION
N/A    - NOT AVAILABLE





USA.gov is the U.S. government's official web portal to all federal, state and local government web resources and services.